This demonstration page uses our WeatherBlox Daily Observations layout. Learn more.

Left ArrowRight Arrow

40.92945, -100.16068

Hourly Observations for April 9, 2020

Temp ( °F °C ) Dew Point ( °F °C ) Humidity (%) Winds ( mph kmh ) Pressure ( in mb ) Visibility ( mi km ) Precip ( " mm )
12:15 am 00:15 Clear 37 2.6 29 -1.5 75 75 NNW 5 7 30.18 1022 10 16 0.00 0.00
12:35 am 00:35 Clear 36 2.3 29 -1.9 74 74 N 5 7 30.18 1022 10 16 0.00 0.00
12:55 am 00:55 Clear 35 1.9 29 -1.7 77 77 Calm 30.19 1022 10 16 0.00 0.00
1:15 am 01:15 Clear 35 1.8 28 -2.2 75 75 N 6 9 30.20 1023 10 16 0.00 0.00
1:35 am 01:35 Clear 33 0.5 28 -2.4 81 81 N 9 15 30.20 1023 10 16 0.00 0.00
1:55 am 01:55 Clear 32 0.2 28 -2.5 82 82 NNW 3 6 30.21 1023 10 16 0.00 0.00
2:15 am 02:15 Clear 33 0.4 29 -1.9 85 85 W 7 11 30.21 1023 10 16 0.00 0.00
2:35 am 02:35 Clear 33 0.7 29 -1.8 84 84 W 6 9 30.21 1023 10 16 0.00 0.00
2:55 am 02:55 Clear 33 0.5 28 -2 84 84 NW 8 13 30.21 1023 10 16 0.00 0.00
3:15 am 03:15 Clear 32 0.1 28 -2.3 84 84 NW 8 13 30.23 1024 10 16 0.00 0.00
3:35 am 03:35 Clear 32 0 28 -2.1 86 86 W 8 13 30.23 1024 10 16 0.00 0.00
3:55 am 03:55 Clear 32 -0.1 28 -2.5 84 84 W 7 11 30.24 1024 10 16 0.00 0.00
4:15 am 04:15 Clear 31 -0.5 27 -2.6 86 86 WNW 7 11 30.24 1024 10 16 0.00 0.00
4:35 am 04:35 Clear 31 -0.5 27 -2.7 85 85 WNW 6 9 30.23 1024 10 16 0.00 0.00
4:55 am 04:55 Clear 29 -1.5 26 -3.3 88 88 WNW 6 9 30.23 1024 10 16 0.00 0.00
5:15 am 05:15 Clear 28 -2.3 25 -4.1 88 88 NNW 8 13 30.23 1024 10 16 0.00 0.00
5:35 am 05:35 Clear 28 -2.1 25 -3.9 88 88 N 9 15 30.24 1024 10 16 0.00 0.00
5:55 am 05:55 Clear 29 -1.8 25 -3.8 86 86 N 9 15 30.24 1024 10 16 0.00 0.00
6:15 am 06:15 Clear 28 -2.2 25 -4 88 88 N 8 13 30.25 1024 10 16 0.00 0.00
6:35 am 06:35 Clear 28 -2.5 24 -4.3 88 88 N 8 13 30.25 1024 10 16 0.00 0.00
6:55 am 06:55 Clear 26 -3.3 24 -4.7 90 90 NW 5 7 30.27 1025 10 16 0.00 0.00
7:15 am 07:15 Sunny 28 -2.4 25 -3.9 90 90 WSW 8 13 30.28 1025 10 16 0.00 0.00
7:35 am 07:35 Sunny 29 -1.7 26 -3.6 87 87 W 7 11 30.27 1025 10 16 0.00 0.00
7:55 am 07:55 Sunny 30 -0.9 27 -3 86 86 W 6 9 30.28 1025 10 16 0.00 0.00
8:15 am 08:15 Sunny 32 0 28 -2.5 83 83 W 7 11 30.28 1025 10 16 0.00 0.00
8:35 am 08:35 Partly Cloudy 34 1.2 28 -2 79 79 W 7 11 30.27 1025 10 16 0.00 0.00
8:55 am 08:55 Mostly Cloudy 37 2.5 29 -1.8 74 74 W 9 15 30.25 1024 10 16 0.00 0.00
9:15 am 09:15 Cloudy 39 4 30 -1.1 70 70 W 7 11 30.24 1024 10 16 0.00 0.00
9:35 am 09:35 Cloudy 41 4.8 29 -1.7 63 63 W 9 15 30.23 1024 10 16 0.00 0.00
9:55 am 09:55 Cloudy 42 5.6 28 -2.2 58 58 WNW 12 19 30.22 1023 10 16 0.00 0.00
10:15 am 10:15 Cloudy 43 6.3 27 -2.6 53 53 NW 13 20 30.22 1023 10 16 0.00 0.00
10:35 am 10:35 Cloudy 44 6.7 27 -2.7 51 51 WNW 12 19 30.21 1023 10 16 0.00 0.00
10:55 am 10:55 Cloudy 46 7.7 27 -2.8 48 48 NW 15 24 30.21 1023 10 16 0.00 0.00
11:15 am 11:15 Cloudy 46 7.8 26 -3.6 45 45 NNW 17 28 30.22 1023 10 16 0.00 0.00
11:35 am 11:35 Cloudy 47 8.6 28 -2.4 46 46 NNW 17 28 30.21 1023 10 16 0.00 0.00
11:55 am 11:55 Cloudy 48 8.8 28 -2.2 46 46 NNW 17 28 30.20 1023 10 16 0.00 0.00
12:15 pm 12:15 Cloudy 50 9.8 27 -2.9 41 41 NNW 18 30 30.19 1022 10 16 0.00 0.00
12:35 pm 12:35 Cloudy 50 9.9 27 -2.7 41 41 NNW 15 24 30.18 1022 10 16 0.00 0.00
12:55 pm 12:55 Partly Cloudy 53 11.5 25 -3.9 34 34 NNW 20 31 30.16 1021 10 16 0.00 0.00
1:15 pm 13:15 Sunny 54 12 24 -4.3 32 32 N 16 26 30.15 1021 10 16 0.00 0.00
1:35 pm 13:35 Sunny 54 12 22 -5.4 29 29 NNW 21 33 30.15 1021 10 16 0.00 0.00
1:55 pm 13:55 Sunny 54 12.1 23 -5.2 30 30 NNW 24 39 30.13 1020 10 16 0.00 0.00
2:15 pm 14:15 Sunny 54 12.4 22 -5.7 28 28 NNW 25 41 30.14 1021 10 16 0.00 0.00
2:35 pm 14:35 Sunny 54 12.1 22 -5.6 29 29 NNW 21 33 30.13 1020 10 16 0.00 0.00
2:55 pm 14:55 Sunny 54 12 22 -5.7 29 29 NNW 21 33 30.12 1020 10 16 0.00 0.00
3:15 pm 15:15 Sunny 54 12.3 20 -6.6 26 26 NNW 16 26 30.11 1020 10 16 0.00 0.00
3:35 pm 15:35 Sunny 55 12.5 20 -6.7 26 26 NNW 24 39 30.11 1020 10 16 0.00 0.00
3:55 pm 15:55 Sunny 55 12.5 18 -8 23 23 NNW 22 35 30.11 1020 10 16 0.00 0.00
4:15 pm 16:15 Sunny 54 12.4 17 -8.6 22 22 N 25 41 30.11 1020 10 16 0.00 0.00
4:35 pm 16:35 Sunny 54 12.4 13 -10.4 19 19 NNW 24 39 30.11 1020 10 16 0.00 0.00
4:55 pm 16:55 Sunny 54 12.4 11 -11.5 18 18 N 25 41 30.11 1020 10 16 0.00 0.00
5:15 pm 17:15 Sunny 54 12.2 12 -11.2 18 18 N 16 26 30.11 1020 10 16 0.00 0.00
5:35 pm 17:35 Sunny 53 11.9 11 -11.5 18 18 NNW 21 33 30.11 1020 10 16 0.00 0.00
5:55 pm 17:55 Sunny 53 11.6 11 -11.6 19 19 N 17 28 30.12 1020 10 16 0.00 0.00
6:15 pm 18:15 Sunny 52 11.3 11 -11.5 19 19 NNW 18 30 30.13 1020 10 16 0.00 0.00
6:35 pm 18:35 Sunny 51 10.4 14 -9.9 23 23 N 16 26 30.13 1020 10 16 0.00 0.00
6:55 pm 18:55 Sunny 49 9.6 15 -9.5 25 25 NNE 18 30 30.14 1021 10 16 0.00 0.00
7:15 pm 19:15 Sunny 48 9 15 -9.4 26 26 NNE 18 30 30.16 1021 10 16 0.00 0.00
7:35 pm 19:35 Sunny 46 8 16 -9.1 29 29 NNE 15 24 30.17 1022 10 16 0.00 0.00
7:55 pm 19:55 Sunny 44 6.8 16 -9 32 32 NE 16 26 30.18 1022 10 16 0.00 0.00
8:15 pm 20:15 Clear 42 5.6 17 -8.6 36 36 NNE 13 20 30.19 1022 10 16 0.00 0.00
8:35 pm 20:35 Clear 40 4.5 17 -8.6 38 38 NE 10 17 30.21 1023 10 16 0.00 0.00
8:55 pm 20:55 Clear 39 4.1 17 -8.6 39 39 NE 12 19 30.23 1024 10 16 0.00 0.00
9:15 pm 21:15 Clear 38 3.4 18 -7.6 45 45 NE 10 17 30.24 1024 10 16 0.00 0.00
9:35 pm 21:35 Clear 37 2.6 19 -7.2 49 49 ENE 10 17 30.26 1025 10 16 0.00 0.00
9:55 pm 21:55 Clear 36 2 19 -7.2 51 51 ENE 12 19 30.27 1025 10 16 0.00 0.00
10:15 pm 22:15 Clear 34 1.3 19 -7.1 54 54 ENE 9 15 30.28 1026 10 16 0.00 0.00
10:35 pm 22:35 Clear 33 0.8 19 -7.1 56 56 E 7 11 30.30 1026 10 16 0.00 0.00
10:55 pm 22:55 Clear 33 0.3 19 -7.1 58 58 ENE 10 17 30.29 1026 10 16 0.00 0.00
11:15 pm 23:15 Clear 32 0 19 -7.5 57 57 E 8 13 30.31 1026 10 16 0.00 0.00
11:35 pm 23:35 Clear 32 -0.2 18 -7.7 57 57 E 5 7 30.31 1026 10 16 0.00 0.00
11:55 pm 23:55 Clear 32 -0.2 18 -8 56 56 E 6 9 30.31 1026 10 16 0.00 0.00

Powered by AerisWeather